Location: Azul
(36.7830°S, 59.8500°W)
Time: 04:29:21
(UTC-03:00)

ISS - Pass Details

Date: 13 October 2019
Orbit: 411 x 421 km, 51.6° (Epoch: 15 October)

Event Time Altitude Azimuth Distance (km) Brightness Sun altitude
Rises 05:21:56 0° 223° (SW) 2,401 -0.1 -11.7°
Reaches altitude 10° 05:24:11 10° 213° (SSW) 1,531 -1.1 -11.3°
Maximum altitude 05:27:22 34° 146° (SE) 723 -2.0 -10.7°
Drops below altitude 10° 05:30:32 10° 78° (ENE) 1,519 0.1 -10.1°
Sets 05:32:44 0° 68° (ENE) 2,378 1.0 -9.7°
